Location: Ettringen
(48.1054°N, 10.6545°E)
Time: 00:26:44
(UTC+00:00)

Cosmos 1932 - Pass Details

Date: 18 November 2025
Orbit: 921 x 1008 km, 65.0° (Epoch: 05 December)

Event Time Altitude Azimuth Distance (km) Brightness Sun altitude
Rises 18:06:16 0° 211° (SSW) 3,632 7.9 -24.8°
Reaches altitude 10° 18:08:47 10° 210° (SSW) 2,702 7.2 -25.2°
Maximum altitude 18:15:07 80° 126° (SE) 1,003 4.4 -26.3°
Enters shadow 18:16:22 60° 53° (NE) 1,120 4.5 -26.5°
